Find Starlink 5330

NORAD ID: 55282 Int'l Des: 2023-010 Owner: SPXS Country: US Constellation: starlink operational
LEOCIRCULAR

当前视图

正在加载3D地球...

About Starlink 5330

Starlink 5330 (NORAD 55282) is a starlink constellation satellite (v1.5) launched Jan 19, 2023 by SPXS of US. It operates in LEO, CIRCULAR orbit with a mass of 305.00 kg.

关于 Starlink 5330

正在加载描述...

即将过境

Passes for default location (London). Set your location on the main map for personalized predictions.

高度历史

Loading altitude history...

两行轨道根数

1 55282U 23010P 26171.32337647 -.00000616 00000-0 -43800-4 0 9994
2 55282 69.9989 145.5069 0003952 264.6666 95.4042 14.98334391188151
Epoch: Jun 20, 2026 • Age: 32 hours

当前状态

高度 576.5 km
速度 7.57 km/s
星下点 27.41°N, 4.05°E
发射日期 Jan 19, 2023
运行时间 3.4 years
类型 internet

技术详情

分类 Payload
质量 305.00 kg
干质量 290.00 kg
总质量 305.00 kg
长度 0.20 m
直径 2.80 m
跨度 9.00 m
形状 Box + pan
制造商 SPXS
平台类型 Starlink
阶段状态 In Orbit
所有者/国家 SPXS/US

Most Searched